Regional Weather Roundup
Issued by NWS Little Rock, AR

Home | Current Version | Previous Version | Graphics & Text | Print | Product List | Glossary On
Versions: 1 2 3 4 5 6 7 8 9 10 11 12 13 14 15 16 17 18 19 20 21 22 23 24 25 26 27 28 29 30 31 32 33 34 35 36 37 38 39 40 41 42 43 44 45 46 47 48 49
000
ASUS44 KLZK 280005
RWRLZK

WEATHER ROUNDUP FOR ARKANSAS
NATIONAL WEATHER SERVICE LITTLE ROCK AR
600 PM CST FRI FEB 27 2015

NOTE: "FAIR" INDICATES FEW OR NO CLOUDS BELOW 12,000 FEET WITH NO
SIGNIFICANT WEATHER AND/OR OBSTRUCTIONS TO VISIBILITY.

ARZ001-003-010-029-280100-
NORTHWEST ARKANSAS

CITY           SKY/WX    TMP DP  RH WIND       PRES   REMARKS
FAYETTEVILLE   LGT SNOW  18  16  92 NE3       30.48R FOG
6HR MIN TEMP:  18; 6HR MAX TEMP:  20; 6HR PCP:  0.01;

FORT SMITH     CLOUDY    23  17  78 E8        30.52F WCI  14
6HR MIN TEMP:  21; 6HR MAX TEMP:  25; 6HR PCP:  0.07;

HARRISON       LGT SNOW  17  13  84 E7        30.49F FOG     WCI   8
6HR MIN TEMP:  17; 6HR MAX TEMP:  20; 6HR PCP: TRACE;

BENTONVILLE    CLOUDY    18  12  79 NE6       30.49R WCI   9
6HR MIN TEMP:  18; 6HR MAX TEMP:  19;

ROGERS         LGT SNOW  18  12  79 E7        30.49R FOG     WCI   8
SILOAM SPGS    CLOUDY    18  10  73 E5        30.49S WCI  11
6HR MIN TEMP:  18; 6HR MAX TEMP:  21;

HIGHFILL       LGT SNOW  18  14  84 NE7       30.48R FOG     WCI   9
6HR MIN TEMP:  17; 6HR MAX TEMP:  21; 6HR PCP:  0.01;

SPRINGDALE     CLOUDY    18  14  86 E7        30.49S FOG     WCI   8
$$

ARZ004-005-016-280100-
NORTH CENTRAL ARKANSAS

CITY           SKY/WX    TMP DP  RH WIND       PRES   REMARKS
BATESVILLE     CLOUDY    25  10  54 NE7       30.59R WCI  17
6HR MIN TEMP:  25; 6HR MAX TEMP:  28;

FLIPPIN        CLOUDY    19  12  73 CALM      30.55S
6HR MIN TEMP:  19; 6HR MAX TEMP:  23;

MTN HOME       LGT SNOW  18  14  84 E5        30.53F FOG     WCI  11
6HR MIN TEMP:  18; 6HR MAX TEMP:  22; 6HR PCP: TRACE;

$$

ARZ040-041-280100-
WEST CENTRAL ARKANSAS

CITY           SKY/WX    TMP DP  RH WIND       PRES   REMARKS
MENA           CLOUDY    27  23  86 E9        30.44S WCI  17
MOUNT IDA      LGT SNOW  25  17  72 VRB3      30.45F
6HR MIN TEMP:  25; 6HR MAX TEMP:  30; 6HR PCP: TRACE;

$$

ARZ009-017-025-026-028-280100-
NORTHEAST ARKANSAS

CITY           SKY/WX    TMP DP  RH WIND       PRES   REMARKS
CORNING        FAIR      23  10  58 E10       30.62F WCI  12
JONESBORO      CLOUDY    23  15  71 NE12      30.60F WCI  12
6HR MIN TEMP:  22; 6HR MAX TEMP:  25;

NEWPORT        CLOUDY    25  16  68 NE15      30.61F WCI  13
6HR MIN TEMP:  23; 6HR MAX TEMP:  25;

WALNUT RIDGE   CLOUDY    23   9  54 NE10      30.61S WCI  12
6HR MIN TEMP:  21; 6HR MAX TEMP:  25;

BLYTHEVILLE    CLOUDY    25  16  68 N17       30.62R WCI  12
6HR MIN TEMP:  24; 6HR MAX TEMP:  28;

$$

ARZ022-023-033-042-044-280100-
CENTRAL ARKANSAS

CITY           SKY/WX    TMP DP  RH WIND       PRES   REMARKS
LITTLE ROCK    CLOUDY    28   9  44 NE15      30.55F WCI  16
6HR MIN TEMP:  28; 6HR MAX TEMP:  31;

N LITTLE ROCK  CLOUDY    27  11  50 NE13      30.55F WCI  16
6HR MIN TEMP:  27; 6HR MAX TEMP:  30;

JACKSONVILLE   CLOUDY    27   6  40 E10       30.54F WCI  17
6HR MIN TEMP:  27; 6HR MAX TEMP:  29;

SEARCY         CLOUDY    25  11  55 NE12      30.60R WCI  14
6HR MIN TEMP:  25; 6HR MAX TEMP:  28;

HOT SPRINGS    CLOUDY    28  10  46 E16       30.50F WCI  16
6HR MIN TEMP:  27; 6HR MAX TEMP:  31;

RUSSELLVILLE   LGT SNOW  25  17  72 E7        30.53S WCI  17
6HR MIN TEMP:  25; 6HR MAX TEMP:  30; 6HR PCP: TRACE;

CLINTON        LGT SNOW  23  18  80 CALM      30.57F
$$

ARZ036-280100-
EAST ARKANSAS

CITY           SKY/WX    TMP DP  RH WIND       PRES   REMARKS
WEST MEMPHIS   CLOUDY    26  19  74 N20       30.58R WCI  12
6HR MIN TEMP:  26; 6HR MAX TEMP:  33;

$$

ARZ050-053-066-070-073-280100-
SOUTHWEST ARKANSAS

CITY           SKY/WX    TMP DP  RH WIND       PRES   REMARKS
ARKADELPHIA    FAIR      30  12  47 NE8       30.52F WCI  22
6HR MIN TEMP:  30; 6HR MAX TEMP:  33;

CAMDEN         CLOUDY    30  14  51 MISG      30.52R
TEXARKANA      CLOUDY    30  16  56 E9        30.45F WCI  22
6HR MIN TEMP:  29; 6HR MAX TEMP:  30;

EL DORADO      CLOUDY    31  17  56 NE15      30.48R WCI  20
6HR MIN TEMP:  31; 6HR MAX TEMP:  34;

DE QUEEN       LGT SNOW  27  21  78 NE10      30.46S WCI  17
6HR MIN TEMP:  27; 6HR MAX TEMP:  32; 6HR PCP: TRACE;

$$

ARZ056-057-069-280100-
SOUTHEAST ARKANSAS

CITY           SKY/WX    TMP DP  RH WIND       PRES   REMARKS
PINE BLUFF     CLOUDY    27  15  61 NE13      30.54F WCI  16
6HR MIN TEMP:  26; 6HR MAX TEMP:  28;

STUTTGART      CLOUDY    27  16  63 NE16      30.55F WCI  14
6HR MIN TEMP:  27; 6HR MAX TEMP:  30;

MONTICELLO     CLOUDY    29  18  63 NE16G23   30.51S WCI  17
6HR MIN TEMP:  29; 6HR MAX TEMP:  34;


$$





USA.gov is the U.S. government's official web portal to all federal, state and local government web resources and services.